Year,Month,Day,Hour,Minute,Value (Times are PST for temperature in C)
2013,08,26,00,00,14.00
2013,08,26,00,01,14.10
2013,08,26,00,02,14.10
2013,08,26,00,03,14.10
2013,08,26,00,04,14.10
2013,08,26,00,05,14.10
2013,08,26,00,06,14.10
2013,08,26,00,07,14.10
2013,08,26,00,08,14.10
2013,08,26,00,09,14.20
2013,08,26,00,10,14.20
2013,08,26,00,11,14.20
2013,08,26,00,12,14.20
2013,08,26,00,13,14.20
2013,08,26,00,14,14.20
2013,08,26,00,15,14.20
2013,08,26,00,16,14.20
2013,08,26,00,17,14.20
2013,08,26,00,18,14.20
2013,08,26,00,19,14.20
2013,08,26,00,20,14.10
2013,08,26,00,21,14.20
2013,08,26,00,22,14.20
2013,08,26,00,23,14.20
2013,08,26,00,24,14.20
2013,08,26,00,25,14.20
2013,08,26,00,26,14.20
2013,08,26,00,27,14.20
2013,08,26,00,28,14.20
2013,08,26,00,29,14.20
2013,08,26,00,30,14.20
2013,08,26,00,31,14.20
2013,08,26,00,32,14.20
2013,08,26,00,33,14.20
2013,08,26,00,34,14.20
2013,08,26,00,35,14.20
2013,08,26,00,36,14.20
2013,08,26,00,37,14.20
2013,08,26,00,38,14.20
2013,08,26,00,39,14.20
2013,08,26,00,40,14.20
2013,08,26,00,41,14.20
2013,08,26,00,42,14.20
2013,08,26,00,43,14.20
2013,08,26,00,44,14.10
2013,08,26,00,45,14.10
2013,08,26,00,46,14.10
2013,08,26,00,47,14.10
2013,08,26,00,48,14.00
2013,08,26,00,49,14.00
2013,08,26,00,50,14.00
2013,08,26,00,51,14.00
2013,08,26,00,52,14.00
2013,08,26,00,53,13.90
2013,08,26,00,54,13.90
2013,08,26,00,55,13.90
2013,08,26,00,56,13.90
2013,08,26,00,57,13.90
2013,08,26,00,58,13.80
2013,08,26,00,59,13.80
2013,08,26,01,00,13.80
2013,08,26,01,01,13.80
2013,08,26,01,02,13.80
2013,08,26,01,03,13.70
2013,08,26,01,04,13.70
2013,08,26,01,05,13.70
2013,08,26,01,06,13.60
2013,08,26,01,07,13.60
2013,08,26,01,08,13.50
2013,08,26,01,09,13.50
2013,08,26,01,10,13.40
2013,08,26,01,11,13.40
2013,08,26,01,12,13.40
2013,08,26,01,13,13.30
2013,08,26,01,14,13.30
2013,08,26,01,15,13.30
2013,08,26,01,16,13.30
2013,08,26,01,17,13.20
2013,08,26,01,18,13.20
2013,08,26,01,19,13.10
2013,08,26,01,20,13.10
2013,08,26,01,21,13.10
2013,08,26,01,22,13.00
2013,08,26,01,23,13.00
2013,08,26,01,24,12.90
2013,08,26,01,25,12.90
2013,08,26,01,26,12.90
2013,08,26,01,27,12.80
2013,08,26,01,28,12.80
2013,08,26,01,29,12.80
2013,08,26,01,30,12.80
2013,08,26,01,31,12.80
2013,08,26,01,32,12.80
2013,08,26,01,33,12.70
2013,08,26,01,34,12.70
2013,08,26,01,35,12.70
2013,08,26,01,36,12.70
2013,08,26,01,37,12.60
2013,08,26,01,38,12.60
2013,08,26,01,39,12.60
2013,08,26,01,40,12.60
2013,08,26,01,41,12.50
2013,08,26,01,42,12.50
2013,08,26,01,43,12.40
2013,08,26,01,44,12.40
2013,08,26,01,45,12.40
2013,08,26,01,46,12.40
2013,08,26,01,47,12.30
2013,08,26,01,48,12.30
2013,08,26,01,49,12.30
2013,08,26,01,50,12.30
2013,08,26,01,51,12.30
2013,08,26,01,52,12.30
2013,08,26,01,53,12.30
2013,08,26,01,54,12.30
2013,08,26,01,55,12.30
2013,08,26,01,56,12.20
2013,08,26,01,57,12.20
2013,08,26,01,58,12.20
2013,08,26,01,59,12.20
2013,08,26,02,00,12.20
2013,08,26,02,01,12.20
2013,08,26,02,02,12.20
2013,08,26,02,03,12.10
2013,08,26,02,04,12.10
2013,08,26,02,05,12.10
2013,08,26,02,06,12.10
2013,08,26,02,07,12.00
2013,08,26,02,08,12.00
2013,08,26,02,09,11.90
2013,08,26,02,10,11.90
2013,08,26,02,11,11.90
2013,08,26,02,12,11.90
2013,08,26,02,13,11.90
2013,08,26,02,14,11.90
2013,08,26,02,15,11.90
2013,08,26,02,16,11.90
2013,08,26,02,17,11.90
2013,08,26,02,18,11.90
2013,08,26,02,19,11.90
2013,08,26,02,20,11.90
2013,08,26,02,21,11.90
2013,08,26,02,22,11.90
2013,08,26,02,23,11.90
2013,08,26,02,24,11.90
2013,08,26,02,25,11.90
2013,08,26,02,26,11.90
2013,08,26,02,27,11.90
2013,08,26,02,28,11.90
2013,08,26,02,29,11.90
2013,08,26,02,30,11.90
2013,08,26,02,31,11.90
2013,08,26,02,32,11.90
2013,08,26,02,33,11.90
2013,08,26,02,34,11.90
2013,08,26,02,35,11.90
2013,08,26,02,36,11.90
2013,08,26,02,37,11.90
2013,08,26,02,38,11.90
2013,08,26,02,39,11.90
2013,08,26,02,40,11.90
2013,08,26,02,41,11.90
2013,08,26,02,42,11.90
2013,08,26,02,43,11.90
2013,08,26,02,44,11.90
2013,08,26,02,45,11.90
2013,08,26,02,46,11.90
2013,08,26,02,47,11.90
2013,08,26,02,48,11.90
2013,08,26,02,49,11.90
2013,08,26,02,50,11.90
2013,08,26,02,51,11.90
2013,08,26,02,52,11.90
2013,08,26,02,53,11.90
2013,08,26,02,54,11.90
2013,08,26,02,55,12.00
2013,08,26,02,56,12.00
2013,08,26,02,57,12.00
2013,08,26,02,58,12.00
2013,08,26,02,59,12.00
2013,08,26,03,00,12.00
2013,08,26,03,01,12.00
2013,08,26,03,02,12.00
2013,08,26,03,03,12.00
2013,08,26,03,04,12.00
2013,08,26,03,05,12.00
2013,08,26,03,06,12.00
2013,08,26,03,07,12.00
2013,08,26,03,08,12.00
2013,08,26,03,09,12.10
2013,08,26,03,10,12.10
2013,08,26,03,11,12.10
2013,08,26,03,12,12.00
2013,08,26,03,13,12.00
2013,08,26,03,14,12.00
2013,08,26,03,15,12.00
2013,08,26,03,16,12.00
2013,08,26,03,17,11.90
2013,08,26,03,18,11.90
2013,08,26,03,19,11.90
2013,08,26,03,20,11.90
2013,08,26,03,21,11.90
2013,08,26,03,22,11.90
2013,08,26,03,23,11.90
2013,08,26,03,24,11.90
2013,08,26,03,25,11.80
2013,08,26,03,26,11.80
2013,08,26,03,27,11.80
2013,08,26,03,28,11.80
2013,08,26,03,29,11.80
2013,08,26,03,30,11.80
2013,08,26,03,31,11.80
2013,08,26,03,32,11.80
2013,08,26,03,33,11.80
2013,08,26,03,34,11.80
2013,08,26,03,35,11.70
2013,08,26,03,36,11.70
2013,08,26,03,37,11.70
2013,08,26,03,38,11.70
2013,08,26,03,39,11.70
2013,08,26,03,40,11.70
2013,08,26,03,41,11.70
2013,08,26,03,42,11.70
2013,08,26,03,43,11.70
2013,08,26,03,44,11.70
2013,08,26,03,45,11.70
2013,08,26,03,46,11.70
2013,08,26,03,47,11.70
2013,08,26,03,48,11.70
2013,08,26,03,49,11.70
2013,08,26,03,50,11.60
2013,08,26,03,51,11.60
2013,08,26,03,52,11.60
2013,08,26,03,53,11.60
2013,08,26,03,54,11.60
2013,08,26,03,55,11.60
2013,08,26,03,56,11.60
2013,08,26,03,57,11.60
2013,08,26,03,58,11.50
2013,08,26,03,59,11.50
2013,08,26,04,00,11.50
2013,08,26,04,01,11.50
2013,08,26,04,02,11.40
2013,08,26,04,03,11.40
2013,08,26,04,04,11.40
2013,08,26,04,05,11.40
2013,08,26,04,06,11.40
2013,08,26,04,07,11.40
2013,08,26,04,08,11.40
2013,08,26,04,09,11.40
2013,08,26,04,10,11.40
2013,08,26,04,11,11.40
2013,08,26,04,12,11.40
2013,08,26,04,13,11.40
2013,08,26,04,14,11.40
2013,08,26,04,15,11.40
2013,08,26,04,16,11.30
2013,08,26,04,17,11.30
2013,08,26,04,18,11.30
2013,08,26,04,19,11.30
2013,08,26,04,20,11.30
2013,08,26,04,21,11.30
2013,08,26,04,22,11.30
2013,08,26,04,23,11.30
2013,08,26,04,24,11.30
2013,08,26,04,25,11.30
2013,08,26,04,26,11.30
2013,08,26,04,27,11.30
2013,08,26,04,28,11.30
2013,08,26,04,29,11.30
2013,08,26,04,30,11.20
2013,08,26,04,31,11.20
2013,08,26,04,32,11.20
2013,08,26,04,33,11.10
2013,08,26,04,34,11.10
2013,08,26,04,35,11.10
2013,08,26,04,36,11.10
2013,08,26,04,37,11.10
2013,08,26,04,38,11.10
2013,08,26,04,39,11.10
2013,08,26,04,40,11.10
2013,08,26,04,41,11.00
2013,08,26,04,42,11.00
2013,08,26,04,43,10.90
2013,08,26,04,44,10.90
2013,08,26,04,45,10.90
2013,08,26,04,46,10.90
2013,08,26,04,47,10.80
2013,08,26,04,48,10.80
2013,08,26,04,49,10.80
2013,08,26,04,50,10.80
2013,08,26,04,51,10.80
2013,08,26,04,52,10.80
2013,08,26,04,53,10.80
2013,08,26,04,54,10.80
2013,08,26,04,55,10.80
2013,08,26,04,56,10.80
2013,08,26,04,57,10.80
2013,08,26,04,58,10.80
2013,08,26,04,59,10.80
2013,08,26,05,00,10.80
2013,08,26,05,01,10.80
2013,08,26,05,02,10.80
2013,08,26,05,03,10.80
2013,08,26,05,04,10.80
2013,08,26,05,05,10.80
2013,08,26,05,06,10.70
2013,08,26,05,07,10.70
2013,08,26,05,08,10.60
2013,08,26,05,09,10.60
2013,08,26,05,10,10.50
2013,08,26,05,11,10.50
2013,08,26,05,12,10.50
2013,08,26,05,13,10.40
2013,08,26,05,14,10.40
2013,08,26,05,15,10.40
2013,08,26,05,16,10.40
2013,08,26,05,17,10.40
2013,08,26,05,18,10.40
2013,08,26,05,19,10.40
2013,08,26,05,20,10.40
2013,08,26,05,21,10.40
2013,08,26,05,22,10.30
2013,08,26,05,23,10.30
2013,08,26,05,24,10.30
2013,08,26,05,25,10.30
2013,08,26,05,26,10.30
2013,08,26,05,27,10.30
2013,08,26,05,28,10.20
2013,08,26,05,29,10.20
2013,08,26,05,30,10.20
2013,08,26,05,31,10.20
2013,08,26,05,32,10.20
2013,08,26,05,33,10.20
2013,08,26,05,34,10.20
2013,08,26,05,35,10.20
2013,08,26,05,36,10.20
2013,08,26,05,37,10.20
2013,08,26,05,38,10.20
2013,08,26,05,39,10.10
2013,08,26,05,40,10.10
2013,08,26,05,41,10.10
2013,08,26,05,42,10.10
2013,08,26,05,43,10.10
2013,08,26,05,44,10.10
2013,08,26,05,45,10.10
2013,08,26,05,46,10.10
2013,08,26,05,47,10.20
2013,08,26,05,48,10.20
2013,08,26,05,49,10.20
2013,08,26,05,50,10.30
2013,08,26,05,51,10.30
2013,08,26,05,52,10.30
2013,08,26,05,53,10.30
2013,08,26,05,54,10.30
2013,08,26,05,55,10.40
2013,08,26,05,56,10.40
2013,08,26,05,57,10.40
2013,08,26,05,58,10.40
2013,08,26,05,59,10.40
2013,08,26,06,00,10.40
2013,08,26,06,01,10.40
2013,08,26,06,02,10.30
2013,08,26,06,03,10.30
2013,08,26,06,04,10.30
2013,08,26,06,05,10.30
2013,08,26,06,06,10.30
2013,08,26,06,07,10.30
2013,08,26,06,08,10.30
2013,08,26,06,09,10.30
2013,08,26,06,10,10.30
2013,08,26,06,11,10.30
2013,08,26,06,12,10.30
2013,08,26,06,13,10.30
2013,08,26,06,14,10.20
2013,08,26,06,15,10.30
2013,08,26,06,16,10.20
2013,08,26,06,17,10.20
2013,08,26,06,18,10.20
2013,08,26,06,19,10.20
2013,08,26,06,20,10.20
2013,08,26,06,21,10.20
2013,08,26,06,22,10.20
2013,08,26,06,23,10.20
2013,08,26,06,24,10.20
2013,08,26,06,25,10.20
2013,08,26,06,26,10.10
2013,08,26,06,27,10.10
2013,08,26,06,28,10.10
2013,08,26,06,29,10.10
2013,08,26,06,30,10.10
2013,08,26,06,31,10.10
2013,08,26,06,32,10.10
2013,08,26,06,33,10.10
2013,08,26,06,34,10.00
2013,08,26,06,35,10.00
2013,08,26,06,36,10.00
2013,08,26,06,37,10.00
2013,08,26,06,38,9.90
2013,08,26,06,39,9.90
2013,08,26,06,40,9.90
2013,08,26,06,41,9.90
2013,08,26,06,42,9.90
2013,08,26,06,43,9.90
2013,08,26,06,44,9.90
2013,08,26,06,45,9.90
2013,08,26,06,46,9.90
2013,08,26,06,47,9.90
2013,08,26,06,48,9.90
2013,08,26,06,49,9.90
2013,08,26,06,50,9.90
2013,08,26,06,51,9.90
2013,08,26,06,52,9.90
2013,08,26,06,53,9.90
2013,08,26,06,54,9.90
2013,08,26,06,55,9.90
2013,08,26,06,56,9.80
2013,08,26,06,57,9.80
2013,08,26,06,58,9.80
2013,08,26,06,59,9.80
2013,08,26,07,00,9.80
2013,08,26,07,01,9.80
2013,08,26,07,02,9.80
2013,08,26,07,03,9.80
2013,08,26,07,04,9.80
2013,08,26,07,05,9.70
2013,08,26,07,06,9.70
2013,08,26,07,07,9.70
2013,08,26,07,08,9.70
2013,08,26,07,09,9.70
2013,08,26,07,10,9.70
2013,08,26,07,11,9.70
2013,08,26,07,12,9.70
2013,08,26,07,13,9.70
2013,08,26,07,14,9.70
2013,08,26,07,15,9.70
2013,08,26,07,16,9.70
2013,08,26,07,17,9.70
2013,08,26,07,18,9.70
2013,08,26,07,19,9.70
2013,08,26,07,20,9.80
2013,08,26,07,21,9.80
2013,08,26,07,22,9.90
2013,08,26,07,23,9.90
2013,08,26,07,24,9.90
2013,08,26,07,25,10.00
2013,08,26,07,26,10.10
2013,08,26,07,27,10.10
2013,08,26,07,28,10.20
2013,08,26,07,29,10.30
2013,08,26,07,30,10.40
2013,08,26,07,31,10.40
2013,08,26,07,32,10.50
2013,08,26,07,33,10.60
2013,08,26,07,34,10.70
2013,08,26,07,35,10.80
2013,08,26,07,36,10.90
2013,08,26,07,37,11.00
2013,08,26,07,38,11.10
2013,08,26,07,39,11.20
2013,08,26,07,40,11.40
2013,08,26,07,41,11.50
2013,08,26,07,42,11.60
2013,08,26,07,43,11.80
2013,08,26,07,44,11.90
2013,08,26,07,45,12.00
2013,08,26,07,46,12.10
2013,08,26,07,47,12.20
2013,08,26,07,48,12.30
2013,08,26,07,49,12.30
2013,08,26,07,50,12.40
2013,08,26,07,51,12.50
2013,08,26,07,52,12.50
2013,08,26,07,53,12.60
2013,08,26,07,54,12.60
2013,08,26,07,55,12.60
2013,08,26,07,56,12.60
2013,08,26,07,57,12.60
2013,08,26,07,58,12.60
2013,08,26,07,59,12.60
2013,08,26,08,00,12.60
2013,08,26,08,01,12.70
2013,08,26,08,02,12.70
2013,08,26,08,03,12.70
2013,08,26,08,04,12.80
2013,08,26,08,05,12.80
2013,08,26,08,06,12.90
2013,08,26,08,07,13.00
2013,08,26,08,08,13.00
2013,08,26,08,09,13.10
2013,08,26,08,10,13.10
2013,08,26,08,11,13.10
2013,08,26,08,12,13.20
2013,08,26,08,13,13.20
2013,08,26,08,14,13.30
2013,08,26,08,15,13.30
2013,08,26,08,16,13.40
2013,08,26,08,17,13.40
2013,08,26,08,18,13.50
2013,08,26,08,19,13.50
2013,08,26,08,20,13.60
2013,08,26,08,21,13.60
2013,08,26,08,22,13.70
2013,08,26,08,23,13.70
2013,08,26,08,24,13.70
2013,08,26,08,25,13.70
2013,08,26,08,26,13.80
2013,08,26,08,27,14.20
2013,08,26,08,28,14.30
2013,08,26,08,29,14.40
2013,08,26,08,30,14.50
2013,08,26,08,31,14.60
2013,08,26,08,32,14.60
2013,08,26,08,33,14.70
2013,08,26,08,34,14.80
2013,08,26,08,35,14.90
2013,08,26,08,36,15.00
2013,08,26,08,37,15.00
2013,08,26,08,38,15.00
2013,08,26,08,39,15.10
2013,08,26,08,40,15.20
2013,08,26,08,41,15.30
2013,08,26,08,42,15.30
2013,08,26,08,43,15.30
2013,08,26,08,44,15.30
2013,08,26,08,45,15.40
2013,08,26,08,46,15.40
2013,08,26,08,47,15.40
2013,08,26,08,48,15.40
2013,08,26,08,49,15.50
2013,08,26,08,50,15.50
2013,08,26,08,51,15.60
2013,08,26,08,52,15.60
2013,08,26,08,53,15.70
2013,08,26,08,54,15.70
2013,08,26,08,55,15.80
2013,08,26,08,56,15.80
2013,08,26,08,57,15.90
2013,08,26,08,58,15.90
2013,08,26,08,59,16.00
2013,08,26,09,00,16.00
2013,08,26,09,01,16.10
2013,08,26,09,02,16.10
2013,08,26,09,03,16.20
2013,08,26,09,04,16.20
2013,08,26,09,05,16.30
2013,08,26,09,06,16.40
2013,08,26,09,07,16.40
2013,08,26,09,08,16.50
2013,08,26,09,09,16.60
2013,08,26,09,10,16.60
2013,08,26,09,11,16.70
2013,08,26,09,12,16.70
2013,08,26,09,13,16.80
2013,08,26,09,14,16.90
2013,08,26,09,15,16.90
2013,08,26,09,16,16.90
2013,08,26,09,17,17.00
2013,08,26,09,18,17.00
2013,08,26,09,19,17.10
2013,08,26,09,20,17.10
2013,08,26,09,21,17.10
2013,08,26,09,22,17.10
2013,08,26,09,23,17.10
2013,08,26,09,24,17.20
2013,08,26,09,25,17.20
2013,08,26,09,26,17.20
2013,08,26,09,27,17.20
2013,08,26,09,28,17.20
2013,08,26,09,29,17.20
2013,08,26,09,30,17.30
2013,08,26,09,31,17.30
2013,08,26,09,32,17.40
2013,08,26,09,33,17.40
2013,08,26,09,34,17.50
2013,08,26,09,35,17.60
2013,08,26,09,36,17.60
2013,08,26,09,37,17.70
2013,08,26,09,38,17.80
2013,08,26,09,39,17.80
2013,08,26,09,40,17.90
2013,08,26,09,41,17.90
2013,08,26,09,42,18.00
2013,08,26,09,43,18.00
2013,08,26,09,44,18.10
2013,08,26,09,45,18.10
2013,08,26,09,46,18.10
2013,08,26,09,47,18.10
2013,08,26,09,48,18.10
2013,08,26,09,49,18.20
2013,08,26,09,50,18.20
2013,08,26,09,51,18.30
2013,08,26,09,52,18.30
2013,08,26,09,53,18.40
2013,08,26,09,54,18.40
2013,08,26,09,55,18.50
2013,08,26,09,56,18.60
2013,08,26,09,57,18.60
2013,08,26,09,58,18.60
2013,08,26,09,59,18.50
2013,08,26,10,00,18.50
2013,08,26,10,01,18.40
2013,08,26,10,02,18.40
2013,08,26,10,03,18.50
2013,08,26,10,04,18.50
2013,08,26,10,05,18.60
2013,08,26,10,06,18.70
2013,08,26,10,07,18.80
2013,08,26,10,08,18.90
2013,08,26,10,09,18.90
2013,08,26,10,10,19.10
2013,08,26,10,11,19.20
2013,08,26,10,12,19.30
2013,08,26,10,13,19.30
2013,08,26,10,14,19.40
2013,08,26,10,15,19.40
2013,08,26,10,16,19.40
2013,08,26,10,17,19.30
2013,08,26,10,18,19.40
2013,08,26,10,19,19.40
2013,08,26,10,20,19.40
2013,08,26,10,21,19.40
2013,08,26,10,22,19.30
2013,08,26,10,23,19.20
2013,08,26,10,24,19.20
2013,08,26,10,25,19.20
2013,08,26,10,26,19.20
2013,08,26,10,27,19.10
2013,08,26,10,28,19.20
2013,08,26,10,29,19.20
2013,08,26,10,30,19.20
2013,08,26,10,31,19.20
2013,08,26,10,32,19.20
2013,08,26,10,33,19.20
2013,08,26,10,34,19.30
2013,08,26,10,35,19.30
2013,08,26,10,36,19.30
2013,08,26,10,37,19.30
2013,08,26,10,38,19.30
2013,08,26,10,39,19.40
2013,08,26,10,40,19.40
2013,08,26,10,41,19.40
2013,08,26,10,42,19.40
2013,08,26,10,43,19.40
2013,08,26,10,44,19.40
2013,08,26,10,45,19.30
2013,08,26,10,46,19.30
2013,08,26,10,47,19.30
2013,08,26,10,48,19.30
2013,08,26,10,49,19.30
2013,08,26,10,50,19.30
2013,08,26,10,51,19.30
2013,08,26,10,52,19.30
2013,08,26,10,53,19.20
2013,08,26,10,54,19.30
2013,08,26,10,55,19.40
2013,08,26,10,56,19.50
2013,08,26,10,57,19.50
2013,08,26,10,58,19.60
2013,08,26,10,59,19.60
2013,08,26,11,00,19.60
2013,08,26,11,01,19.60
2013,08,26,11,02,19.60
2013,08,26,11,03,19.60
2013,08,26,11,04,19.70
2013,08,26,11,05,19.70
2013,08,26,11,06,19.80
2013,08,26,11,07,19.80
2013,08,26,11,08,19.80
2013,08,26,11,09,19.80
2013,08,26,11,10,19.80
2013,08,26,11,11,19.90
2013,08,26,11,12,20.00
2013,08,26,11,13,20.10
2013,08,26,11,14,20.10
2013,08,26,11,15,20.00
2013,08,26,11,16,20.00
2013,08,26,11,17,20.00
2013,08,26,11,18,19.80
2013,08,26,11,19,19.70
2013,08,26,11,20,19.60
2013,08,26,11,21,19.60
2013,08,26,11,22,19.50
2013,08,26,11,23,19.50
2013,08,26,11,24,19.40
2013,08,26,11,25,19.40
2013,08,26,11,26,19.30
2013,08,26,11,27,19.30
2013,08,26,11,28,19.30
2013,08,26,11,29,19.40
2013,08,26,11,30,19.30
2013,08,26,11,31,19.30
2013,08,26,11,32,19.30
2013,08,26,11,33,19.30
2013,08,26,11,34,19.30
2013,08,26,11,35,19.20
2013,08,26,11,36,19.10
2013,08,26,11,37,19.10
2013,08,26,11,38,19.10
2013,08,26,11,39,19.10
2013,08,26,11,40,19.20
2013,08,26,11,41,19.20
2013,08,26,11,42,19.20
2013,08,26,11,43,19.20
2013,08,26,11,44,19.10
2013,08,26,11,45,19.10
2013,08,26,11,46,19.00
2013,08,26,11,47,19.00
2013,08,26,11,48,18.90
2013,08,26,11,49,18.80
2013,08,26,11,50,18.80
2013,08,26,11,51,18.80
2013,08,26,11,52,18.80
2013,08,26,11,53,18.80
2013,08,26,11,54,18.70
2013,08,26,11,55,18.80
2013,08,26,11,56,18.80
2013,08,26,11,57,18.90
2013,08,26,11,58,18.90
2013,08,26,11,59,19.00
2013,08,26,12,00,19.00
2013,08,26,12,01,19.20
2013,08,26,12,02,19.10
2013,08,26,12,03,19.10
2013,08,26,12,04,19.10
2013,08,26,12,05,19.10
2013,08,26,12,06,19.10
2013,08,26,12,07,19.10
2013,08,26,12,08,19.00
2013,08,26,12,09,19.00
2013,08,26,12,10,19.00
2013,08,26,12,11,19.00
2013,08,26,12,12,19.10
2013,08,26,12,13,19.10
2013,08,26,12,14,19.00
2013,08,26,12,15,19.00
2013,08,26,12,16,19.00
2013,08,26,12,17,19.10
2013,08,26,12,18,19.10
2013,08,26,12,19,19.10
2013,08,26,12,20,19.20
2013,08,26,12,21,19.20
2013,08,26,12,22,19.20
2013,08,26,12,23,19.20
2013,08,26,12,24,19.20
2013,08,26,12,25,19.10
2013,08,26,12,26,19.20
2013,08,26,12,27,19.20
2013,08,26,12,28,19.20
2013,08,26,12,29,19.20
2013,08,26,12,30,19.30
2013,08,26,12,31,19.40
2013,08,26,12,32,19.50
2013,08,26,12,33,19.60
2013,08,26,12,34,19.60
2013,08,26,12,35,19.70
2013,08,26,12,36,19.70
2013,08,26,12,37,19.80
2013,08,26,12,38,19.80
2013,08,26,12,39,19.90
2013,08,26,12,40,19.90
2013,08,26,12,41,19.90
2013,08,26,12,42,19.90
2013,08,26,12,43,19.90
2013,08,26,12,44,19.80
2013,08,26,12,45,19.60
2013,08,26,12,46,19.50
2013,08,26,12,47,19.50
2013,08,26,12,48,19.40
2013,08,26,12,49,19.40
2013,08,26,12,50,19.30
2013,08,26,12,51,19.30
2013,08,26,12,52,19.30
2013,08,26,12,53,19.30
2013,08,26,12,54,19.30
2013,08,26,12,55,19.30
2013,08,26,12,56,19.20
2013,08,26,12,57,19.10
2013,08,26,12,58,19.10
2013,08,26,12,59,19.00
2013,08,26,13,00,18.90
2013,08,26,13,01,18.80
2013,08,26,13,02,18.80
2013,08,26,13,03,18.80
2013,08,26,13,04,18.80
2013,08,26,13,05,18.80
2013,08,26,13,06,18.90
2013,08,26,13,07,18.90
2013,08,26,13,08,19.00
2013,08,26,13,09,19.20
2013,08,26,13,10,19.30
2013,08,26,13,11,19.40
2013,08,26,13,12,19.50
2013,08,26,13,13,19.50
2013,08,26,13,14,19.50
2013,08,26,13,15,19.60
2013,08,26,13,16,19.60
2013,08,26,13,17,19.60
2013,08,26,13,18,19.60
2013,08,26,13,19,19.50
2013,08,26,13,20,19.50
2013,08,26,13,21,19.40
2013,08,26,13,22,19.40
2013,08,26,13,23,19.30
2013,08,26,13,24,19.30
2013,08,26,13,25,19.30
2013,08,26,13,26,19.20
2013,08,26,13,27,19.20
2013,08,26,13,28,19.20
2013,08,26,13,29,19.20
2013,08,26,13,30,19.30
2013,08,26,13,31,19.30
2013,08,26,13,32,19.30
2013,08,26,13,33,19.20
2013,08,26,13,34,19.20
2013,08,26,13,35,19.20
2013,08,26,13,36,19.20
2013,08,26,13,37,19.20
2013,08,26,13,38,19.20
2013,08,26,13,39,19.30
2013,08,26,13,40,19.30
2013,08,26,13,41,19.30
2013,08,26,13,42,19.30
2013,08,26,13,43,19.30
2013,08,26,13,44,19.30
2013,08,26,13,45,19.30
2013,08,26,13,46,19.20
2013,08,26,13,47,19.20
2013,08,26,13,48,19.20
2013,08,26,13,49,19.20
2013,08,26,13,50,19.20
2013,08,26,13,51,19.30
2013,08,26,13,52,19.30
2013,08,26,13,53,19.30
2013,08,26,13,54,19.30
2013,08,26,13,55,19.40
2013,08,26,13,56,19.40
2013,08,26,13,57,19.40
2013,08,26,13,58,19.40
2013,08,26,13,59,19.50
2013,08,26,14,00,19.50
2013,08,26,14,01,19.60
2013,08,26,14,02,19.60
2013,08,26,14,03,19.70
2013,08,26,14,04,19.70
2013,08,26,14,05,19.70
2013,08,26,14,06,19.70
2013,08,26,14,07,19.70
2013,08,26,14,08,19.70
2013,08,26,14,09,19.70
2013,08,26,14,10,19.70
2013,08,26,14,11,19.70
2013,08,26,14,12,19.70
2013,08,26,14,13,19.60
2013,08,26,14,14,19.60
2013,08,26,14,15,19.60
2013,08,26,14,16,19.60
2013,08,26,14,17,19.60
2013,08,26,14,18,19.60
2013,08,26,14,19,19.70
2013,08,26,14,20,19.70
2013,08,26,14,21,19.70
2013,08,26,14,22,19.70
2013,08,26,14,23,19.70
2013,08,26,14,24,19.70
2013,08,26,14,25,19.70
2013,08,26,14,26,19.80
2013,08,26,14,27,19.80
2013,08,26,14,28,19.80
2013,08,26,14,29,19.80
2013,08,26,14,30,19.80
2013,08,26,14,31,19.80
2013,08,26,14,32,19.80
2013,08,26,14,33,19.90
2013,08,26,14,34,19.90
2013,08,26,14,35,19.90
2013,08,26,14,36,19.90
2013,08,26,14,37,19.90
2013,08,26,14,38,19.80
2013,08,26,14,39,19.80
2013,08,26,14,40,19.80
2013,08,26,14,41,19.80
2013,08,26,14,42,19.80
2013,08,26,14,43,19.80
2013,08,26,14,44,19.80
2013,08,26,14,45,19.80
2013,08,26,14,46,19.80
2013,08,26,14,47,19.80
2013,08,26,14,48,19.80
2013,08,26,14,49,19.90
2013,08,26,14,50,19.90
2013,08,26,14,51,19.90
2013,08,26,14,52,19.90
2013,08,26,14,53,19.90
2013,08,26,14,54,19.90
2013,08,26,14,55,19.90
2013,08,26,14,56,19.90
2013,08,26,14,57,19.90
2013,08,26,14,58,19.90
2013,08,26,14,59,19.90
2013,08,26,15,00,19.90
2013,08,26,15,01,20.00
2013,08,26,15,02,20.00
2013,08,26,15,03,19.90
2013,08,26,15,04,19.90
2013,08,26,15,05,20.00
2013,08,26,15,06,19.90
2013,08,26,15,07,20.00
2013,08,26,15,08,20.00
2013,08,26,15,09,20.00
2013,08,26,15,10,20.00
2013,08,26,15,11,20.00
2013,08,26,15,12,20.10
2013,08,26,15,13,20.10
2013,08,26,15,14,20.10
2013,08,26,15,15,20.10
2013,08,26,15,16,20.10
2013,08,26,15,17,20.10
2013,08,26,15,18,20.10
2013,08,26,15,19,20.10
2013,08,26,15,20,20.10
2013,08,26,15,21,20.10
2013,08,26,15,22,20.10
2013,08,26,15,23,20.10
2013,08,26,15,24,20.10
2013,08,26,15,25,20.10
2013,08,26,15,26,20.10
2013,08,26,15,27,20.20
2013,08,26,15,28,20.20
2013,08,26,15,29,20.30
2013,08,26,15,30,20.30
2013,08,26,15,31,20.30
2013,08,26,15,32,20.30
2013,08,26,15,33,20.40
2013,08,26,15,34,20.40
2013,08,26,15,35,20.40
2013,08,26,15,36,20.40
2013,08,26,15,37,20.50
2013,08,26,15,38,20.50
2013,08,26,15,39,20.50
2013,08,26,15,40,20.50
2013,08,26,15,41,20.50
2013,08,26,15,42,20.50
2013,08,26,15,43,20.50
2013,08,26,15,44,20.50
2013,08,26,15,45,20.50
2013,08,26,15,46,20.50
2013,08,26,15,47,20.40
2013,08,26,15,48,20.40
2013,08,26,15,49,20.40
2013,08,26,15,50,20.40
2013,08,26,15,51,20.40
2013,08,26,15,52,20.40
2013,08,26,15,53,20.30
2013,08,26,15,54,20.30
2013,08,26,15,55,20.30
2013,08,26,15,56,20.30
2013,08,26,15,57,20.30
2013,08,26,15,58,20.30
2013,08,26,15,59,20.30
2013,08,26,16,00,20.30
2013,08,26,16,01,20.30
2013,08,26,16,02,20.30
2013,08,26,16,03,20.30
2013,08,26,16,04,20.30
2013,08,26,16,05,20.30
2013,08,26,16,06,20.30
2013,08,26,16,07,20.30
2013,08,26,16,08,20.30
2013,08,26,16,09,20.30
2013,08,26,16,10,20.30
2013,08,26,16,11,20.30
2013,08,26,16,12,20.30
2013,08,26,16,13,20.30
2013,08,26,16,14,20.30
2013,08,26,16,15,20.30
2013,08,26,16,16,20.20
2013,08,26,16,17,20.20
2013,08,26,16,18,20.10
2013,08,26,16,19,20.00
2013,08,26,16,20,20.00
2013,08,26,16,21,19.90
2013,08,26,16,22,19.80
2013,08,26,16,23,19.80
2013,08,26,16,24,19.80
2013,08,26,16,25,19.80
2013,08,26,16,26,19.80
2013,08,26,16,27,19.80
2013,08,26,16,28,19.80
2013,08,26,16,29,19.80
2013,08,26,16,30,19.80
2013,08,26,16,31,19.70
2013,08,26,16,32,19.70
2013,08,26,16,33,19.80
2013,08,26,16,34,19.80
2013,08,26,16,35,19.80
2013,08,26,16,36,19.70
2013,08,26,16,37,19.70
2013,08,26,16,38,19.70
2013,08,26,16,39,19.70
2013,08,26,16,40,19.70
2013,08,26,16,41,19.70
2013,08,26,16,42,19.70
2013,08,26,16,43,19.70
2013,08,26,16,44,19.60
2013,08,26,16,45,19.60
2013,08,26,16,46,19.60
2013,08,26,16,47,19.60
2013,08,26,16,48,19.60
2013,08,26,16,49,19.50
2013,08,26,16,50,19.50
2013,08,26,16,51,19.40
2013,08,26,16,52,19.40
2013,08,26,16,53,19.40
2013,08,26,16,54,19.30
2013,08,26,16,55,19.30
2013,08,26,16,56,19.20
2013,08,26,16,57,19.20
2013,08,26,16,58,19.20
2013,08,26,16,59,19.10
2013,08,26,17,00,19.10
2013,08,26,17,01,19.00
2013,08,26,17,02,19.00
2013,08,26,17,03,19.00
2013,08,26,17,04,18.90
2013,08,26,17,05,18.90
2013,08,26,17,06,18.90
2013,08,26,17,07,18.90
2013,08,26,17,08,18.90
2013,08,26,17,09,18.80
2013,08,26,17,10,18.80
2013,08,26,17,11,18.70
2013,08,26,17,12,18.60
2013,08,26,17,13,18.60
2013,08,26,17,14,18.50
2013,08,26,17,15,18.50
2013,08,26,17,16,18.50
2013,08,26,17,17,18.40
2013,08,26,17,18,18.40
2013,08,26,17,19,18.40
2013,08,26,17,20,18.40
2013,08,26,17,21,18.40